Location: Bailen
(14.1842°N, 120.7958°E)
Time: 18:00:25
(UTC+00:00)

Meteor 2-10 Rocket - Pass Details

Date: 12 January 2026
Orbit: 733 x 881 km, 81.2° (Epoch: 17 February)

Event Time Altitude Azimuth Distance (km) Brightness Sun altitude
Rises 21:40:07 0° 192° (SSW) 3,151 6.8 -10.9°
Reaches altitude 10° 21:42:27 10° 195° (SSW) 2,226 6.0 -10.4°
Maximum altitude 21:47:22 63° 276° (W) 817 3.4 -9.2°
Drops below altitude 10° 21:52:20 10° 357° (N) 2,252 5.7 -8.1°
Sets 21:54:43 0° 1° (N) 3,190 6.5 -7.6°
